Tracking 35331 objects as of 16-Sep-2026
HD Live streaming from Space Station
objects crossing your sky now

FLOCK 4P 3


FLOCK 4P 3 is no longer on orbit
FLOCK 4P 3 is classified as:


NORAD ID: 44812
Int'l Code: 2019-081J
Launch date: November 27, 2019
Source: United States (US)
Launch site: SRIHARIKOTA (SRI)
Decay date: 2023-04-29
Your satellite tracking list
Your tracking list is empty




NASA's NSSDC Master Catalog

Two Line Element Set (TLE):
1 44812U 19081J   23116.80522784  .56976334  18660-5  15993-3 0  9996
2 44812  97.3171 192.2770 0048881 193.3777 306.3984 16.56630588190273
Source of the keplerian elements: AFSPC